Regional Weather Roundup
Issued by NWS State College, PA

Home | Current Version | Previous Version | Text Only | Print | Product List | Glossary Off
Versions: 1 2 3 4 5 6 7 8 9 10 11 12 13 14 15 16 17 18 19 20 21 22 23 24 25 26 27 28 29 30 31 32 33 34 35 36 37 38 39 40 41 42 43 44 45 46 47 48 49 50

954
ASUS41 KCTP 300303
RWRCTP

REGIONAL WEATHER ROUNDUP
NATIONAL WEATHER SERVICE STATE COLLEGE PA
1100 PM EDT THU SEP 29 2016

Note: "fair" indicates few or no clouds below 12,000 feet with no
significant weather and/or obstructions to visibility.

* = STATION THAT DOES NOT REPORT PRECIPITATION /E.G. RAIN...SNOW...ETC/
    THUNDER OR FOG.

PAZ002>004-007>009-013>016-020>023-029>032-300400-
WESTERN PENNSYLVANIA

CITY           SKY/WX    TMP DP  RH WIND       PRES   REMARKS
ERIE           RAIN      61  58  90 E5        30.24R
MEADVILLE      RAIN      57  54  89 E7        30.23R
FRANKLIN*        N/A     55  52  88 E5        30.24S
NEW CASTLE     LGT RAIN  58  57  97 E9G20     30.20S
BEAVER COUNTY  NOT AVBL
BUTLER*        CLOUDY    57  54  88 E13       30.20S
PITTSBURGH INT RAIN      58  58 100 E10       30.16R FOG
PITTSBURGH     LGT RAIN  58  56  93 VRB6      30.15S FOG
INDIANA*       CLOUDY    59  55  88 E12G18    30.21S
LATROBE        CLOUDY    59  57  94 E12G17    30.16R
WASHINGTON CO* CLOUDY    59  55  88 NE8       30.16S
$$

PAZ004>006-010>012-017>019-024>028-033>037-041-042-045-046-049>053-300400-
CENTRAL PENNSYLVANIA

CITY           SKY/WX    TMP DP  RH WIND       PRES   REMARKS
BRADFORD       CLOUDY    56  54  93 E6        30.28F
DUBOIS         CLOUDY    56  52  86 E17G25    30.23S
CLEARFIELD     CLOUDY    55  55 100 E13       30.27F FOG
JOHNSTOWN      CLOUDY    54  54 100 E13G31    30.19F
ALTOONA        CLOUDY    55  55 100 NE7       30.24S FOG
STATE COLLEGE  CLOUDY    56  53  89 E7        30.28R
WILLIAMSPORT   CLOUDY    59  54  83 NE10      30.29F
SELINSGROVE    CLOUDY    60  55  83 CALM      30.29F
FT INDIANTOWN  CLOUDY    58  54  86 NE9G16    30.28R
CAPITAL CITY   CLOUDY    60  56  86 E12       30.26S
HARRISBURG     CLOUDY    60  58  92 E9        30.26R
YORK           LGT RAIN  59  59 100 E9        30.24S FOG
$$

PAZ038>040-043-044-047-048-054-055-060>062-067>071-300400-
EASTERN PENNSYLVANIA

CITY           SKY/WX    TMP DP  RH WIND       PRES   REMARKS
SCRANTON       LGT RAIN  56  50  80 NE12      30.32S
MOUNT POCONO   LGT RAIN  50  47  89 E17G24    30.35S
ALLENTOWN      LGT RAIN  58  54  86 NE16G23   30.31F
QUAKERTOWN*    CLOUDY    55  55 100 E9G16     30.32S
READING        LGT RAIN  58  53  84 NE10      30.27S
LANCASTER      LGT RAIN  59  58  96 E15G24    30.26R
COATESVILLE    LGT RAIN  57  57 100 E23G32    30.26S
POTTSTOWN      LGT RAIN  56  55  97 E13G21    30.31S
BLUE BELL      CLOUDY    55  54  94 E13G28    30.29S
DOYLESTOWN     LGT RAIN  58  55  90 NE8       30.30F
WILLOW GROVE   NOT AVBL
NORTH PHILA    CLOUDY    60  58  92 E16G26    30.31S
PHILADELPHIA   CLOUDY    61  58  90 NE18G28   30.27F
$$




USA.gov is the U.S. government's official web portal to all federal, state and local government web resources and services.